• Join FlightAware (Why Join?)
  • Login
  • US Flag 
02:31AM EST


 

Airport Tracker/Info


-or-


 

Live Flight TrackerFlight Track Log ✈ IFX79 ✈ 02-May-2013 ✈ KBFL - KWJF

Flight Track Log - Related Links

Times and Time Zones

All times are in EDT time to prevent confusion due to time zone crossing. See the IFX79 flight status page for this flight to view local times or setup timezone preferences in your user account.

Time Position Orientation Groundspeed Altitude Reporting Facility
EDT Latitude Longitude Course Direction KTS MPH feet Rate Location/Type
11:23AM 35.3225 -118.9106 141° Southeast 150 173 5,700  Level Los Angeles Center
11:24AM 35.2928 -118.8753 136° Southeast 149 171 6,600 840 Climbing Los Angeles Center
11:25AM 35.3045 -118.9045 141° Southeast  Level FlightAware Approximate
11:25AM 35.2561 -118.8339 137° Southeast 149 171 7,500  Level Los Angeles Center
11:26AM 35.2732 -118.8598 129° Southeast  Level FlightAware Approximate
11:26AM 35.2261 -118.7975 135° Southeast 151 174 8,300  Level Los Angeles Center
11:27AM 35.2374 -118.8207 141° Southeast  Level FlightAware Approximate
11:27AM 35.1978 -118.7622 134° Southeast 149 171 8,800  Level Los Angeles Center
11:28AM 35.2001 -118.7834 141° Southeast  Level FlightAware Approximate
11:28AM 35.1572 -118.7372 153° Southeast 165 190 9,200  Level Los Angeles Center
11:29AM 35.1108 -118.7128 157° South 179 206 9,100 -60 Descending Los Angeles Center
11:30AM 35.0633 -118.6897 158° South 184 212 9,100  Level Los Angeles Center
11:31AM 35.0031 -118.6653 162° South 190 219 9,100  Level Los Angeles Center
11:32AM 34.9561 -118.6503 165° South 177 204 9,200  Climbing Los Angeles Center
11:33AM 34.9089 -118.6403 170° South 171 197 9,200  Level Los Angeles Center
11:34AM 34.8614 -118.6406 180° South 178 205 9,200  Level Los Angeles Center
11:36AM 34.8042 -118.6211 164° South 181 208 9,300 -60 Climbing Los Angeles Center
11:37AM 34.7597 -118.5981 157° South 174 200 9,100 -180 Descending Los Angeles Center
11:38AM 34.7136 -118.5881 170° South 167 192 9,000 -120 Descending Los Angeles Center
11:39AM 34.6811 -118.5639 149° Southeast 144 166 8,900  Descending Los Angeles Center
11:40AM 34.7089 -118.5311 44° Northeast 142 163 9,000 -300 Climbing Los Angeles Center
11:41AM 34.7419 -118.5181 18° North 122 140 8,300 -720 Descending Los Angeles Center
11:42AM 34.7694 -118.4819 47° Northeast 118 136 7,600 -420 Descending Los Angeles Center
11:43AM 34.7906 -118.4553 46° Northeast 120 138 7,500 -300 Descending Los Angeles Center
11:44AM 34.8100 -118.4244 52° Northeast 117 135 7,000 -660 Descending Los Angeles Center
11:45AM 34.8342 -118.3981 42° Northeast 116 133 6,200 -960 Descending Los Angeles Center
11:46AM 34.8606 -118.3628 48° Northeast 117 135 5,100 -840 Descending Los Angeles Center
11:47AM 34.8553 -118.3289 101° East 128 147 4,500 -360 Descending Los Angeles Center
11:48AM 34.8286 -118.3022 141° Southeast 126 145 4,400 -120 Descending Los Angeles Center
11:49AM 34.8058 -118.2781 139° Southeast 120 138 4,300 -60 Descending Los Angeles Center
11:50AM 34.7853 -118.2564 139° Southeast 110 127 4,300 -420 Level Los Angeles Center
11:51AM 34.7633 -118.2300 135° Southeast 102 117 3,500 -540 Descending Los Angeles Center
11:52AM 34.7431 -118.2142 147° Southeast 95 109 3,300 -180 Descending Los Angeles Center
11:53AM 34.7211 -118.2336 216° Southwest 109 125 3,200 -60 Descending Los Angeles Center
11:54AM 34.7119 -118.2744 255° West 120 138 3,200  Level Los Angeles Center
11:55AM 34.7197 -118.3019 289° West 129 148 3,300 -180 Climbing Los Angeles Center
11:56AM 34.7253 -118.2761 75° East 96 110 2,900 -360 Descending Los Angeles Center
11:57AM 34.7350 -118.2428 70° East 89 102 2,600 -240 Descending Los Angeles Center
11:58AM 34.7431 -118.2153 70° East 88 101 2,500 -120 Descending Los Angeles Center